Port Huron, MI

6:11 PM EDT on April 26, 2018 (GMT -0400)
Saint Clair County International

Weather History for KPHN - August, 2013

Change the Weather History Date:

Saturday, August 3, 2013

  Actual Average (KMTC) Record (KMTC)
Temperature  
Mean Temperature 65 °F -  
Max Temperature 75 °F 80 °F 97 °F (1955)
Min Temperature 55 °F 61 °F 47 °F (1965)
Growing Degree Days 15 (Base 50)    
Moisture  
Dew Point 58 °F    
Average Humidity 80    
Maximum Humidity 100    
Minimum Humidity 50    
Precipitation  
Precipitation 0.00 in - - ()
Sea Level Pressure  
Sea Level Pressure 29.98 in    
Wind  
Wind Speed 3 mph (NW)    
Max Wind Speed 10 mph    
Max Gust Speed -    
Visibility 9 miles    
Events Fog    
Averages and records for this station are not official NWS values.
T = Trace of Precipitation, MM = Missing Value Source: NWS Daily Summary

Daily Weather History Graph

Daily Weather History Graph

Search for Another Location

Airport or City:

Astronomy

Aug. 03, 2013 Rise Set
Actual Time 6:23 AM EDT 8:48 PM EDT
Civil Twilight 5:51 AM EDT 9:20 PM EDT
Nautical Twilight 5:11 AM EDT 9:59 PM EDT
Astronomical Twilight 4:27 AM EDT 10:43 PM EDT
Moon 3:30 AM EDT (8/3) 6:30 PM EDT (8/3)
Length of Visible Light 15h 28m
Length of Day
14h 24m
Waning Crescent, 9% of the Moon is Illuminated
Aug 3
Waning Crescent
Aug 6
New
Aug 14
First Quarter
Aug 20
Full
Aug 28
Last Quarter

Hourly Weather History & Observations

Time (EDT) Temp. Dew Point Humidity Pressure Visibility Wind Dir Wind Speed Gust Speed Precip Events Conditions
12:16 AM 62.6 °F 62.6 °F 100% 29.89 in 10.0 mi Calm Calm - N/A   Clear
12:36 AM 60.8 °F 60.8 °F 100% 29.89 in 5.0 mi SSW 3.5 mph - N/A   Clear
12:56 AM 60.8 °F 60.8 °F 100% 29.89 in 7.0 mi Calm Calm - N/A   Clear
1:16 AM 62.6 °F 62.6 °F 100% 29.90 in 7.0 mi Calm Calm - N/A   Clear
1:36 AM 60.8 °F 60.8 °F 100% 29.91 in 7.0 mi Calm Calm - N/A   Clear
1:56 AM 60.8 °F 60.8 °F 100% 29.92 in 7.0 mi Calm Calm - N/A   Clear
2:16 AM 60.8 °F 60.8 °F 100% 29.91 in 5.0 mi Calm Calm - N/A   Clear
2:36 AM 60.8 °F 60.8 °F 100% 29.92 in 7.0 mi Calm Calm - N/A   Clear
2:56 AM 60.8 °F 60.8 °F 100% 29.92 in 10.0 mi Calm Calm - N/A   Clear
3:16 AM 60.8 °F 60.8 °F 100% 29.93 in 2.0 mi Calm Calm - N/A   Clear
3:36 AM 59.0 °F 59.0 °F 100% 29.93 in 2.0 mi WNW 3.5 mph - N/A   Clear
3:56 AM 59.0 °F 59.0 °F 100% 29.93 in 5.0 mi WNW 3.5 mph - N/A   Clear
4:16 AM 59.0 °F 59.0 °F 100% 29.93 in 7.0 mi WNW 4.6 mph - N/A   Clear
4:36 AM 59.0 °F 59.0 °F 100% 29.94 in 7.0 mi NW 5.8 mph - N/A   Clear
4:56 AM 59.0 °F 59.0 °F 100% 29.94 in 7.0 mi WNW 4.6 mph - N/A   Clear
5:16 AM 57.2 °F 57.2 °F 100% 29.94 in 7.0 mi NW 3.5 mph - N/A   Clear
5:36 AM 57.2 °F 57.2 °F 100% 29.95 in 7.0 mi WNW 4.6 mph - N/A   Clear
5:56 AM 55.4 °F 55.4 °F 100% 29.95 in 2.5 mi Calm Calm - N/A   Clear
6:16 AM 55.4 °F 55.4 °F 100% 29.96 in 0.5 mi Calm Calm - N/A Fog Fog
6:36 AM 55.4 °F 55.4 °F 100% 29.97 in 1.8 mi West 3.5 mph - N/A   Scattered Clouds
6:56 AM 55.4 °F 55.4 °F 100% 29.97 in 2.5 mi WNW 4.6 mph - N/A   Clear
7:16 AM 57.2 °F 57.2 °F 100% 29.97 in 5.0 mi WNW 3.5 mph - N/A   Clear
7:36 AM 59.0 °F 59.0 °F 100% 29.97 in 7.0 mi WNW 3.5 mph - N/A   Clear
7:56 AM 59.0 °F 59.0 °F 100% 29.98 in 10.0 mi WNW 3.5 mph - N/A   Clear
8:16 AM 60.8 °F 60.8 °F 100% 29.98 in 10.0 mi NW 4.6 mph - N/A   Clear
8:36 AM 62.6 °F 62.6 °F 100% 29.98 in 10.0 mi WNW 4.6 mph - N/A   Clear
8:56 AM 64.4 °F 60.8 °F 88% 29.98 in 10.0 mi NNW 3.5 mph - N/A   Clear
9:16 AM 66.2 °F 60.8 °F 83% 29.99 in 10.0 mi NNW 3.5 mph - N/A   Clear
9:36 AM 66.2 °F 60.8 °F 83% 29.99 in 10.0 mi NNW 4.6 mph - N/A   Clear
9:56 AM 68.0 °F 60.8 °F 78% 29.99 in 10.0 mi NW 4.6 mph - N/A   Clear
10:16 AM 68.0 °F 59.0 °F 73% 29.99 in 10.0 mi North 5.8 mph - N/A   Clear
10:36 AM 68.0 °F 59.0 °F 73% 30.00 in 10.0 mi WNW 4.6 mph - N/A   Clear
10:56 AM 69.8 °F 59.0 °F 68% 30.00 in 10.0 mi WNW 3.5 mph - N/A   Clear
11:16 AM 69.8 °F 59.0 °F 68% 29.99 in 10.0 mi WNW 5.8 mph - N/A   Clear
11:36 AM 71.6 °F 57.2 °F 60% 29.99 in 10.0 mi NW 8.1 mph - N/A   Clear
11:56 AM 71.6 °F 57.2 °F 60% 29.99 in 10.0 mi NNW 8.1 mph - N/A   Scattered Clouds
12:16 PM 71.6 °F 57.2 °F 60% 29.99 in 10.0 mi NW 10.4 mph - N/A   Scattered Clouds
12:36 PM 73.4 °F 57.2 °F 57% 29.99 in 10.0 mi WNW 8.1 mph - N/A   Scattered Clouds
12:56 PM 73.4 °F 57.2 °F 57% 29.99 in 10.0 mi NW 9.2 mph - N/A   Mostly Cloudy
1:16 PM 71.6 °F 57.2 °F 60% 29.99 in 10.0 mi WNW 8.1 mph - N/A   Scattered Clouds
1:36 PM 73.4 °F 57.2 °F 57% 29.99 in 10.0 mi NW 9.2 mph - N/A   Mostly Cloudy
1:56 PM 73.4 °F 57.2 °F 57% 29.99 in 10.0 mi WNW 6.9 mph - N/A   Mostly Cloudy
2:16 PM 73.4 °F 55.4 °F 53% 30.00 in 10.0 mi West 6.9 mph - N/A   Mostly Cloudy
2:36 PM 73.4 °F 57.2 °F 57% 30.00 in 10.0 mi West 8.1 mph - N/A   Mostly Cloudy
2:56 PM 71.6 °F 55.4 °F 57% 30.00 in 10.0 mi WNW 8.1 mph - N/A   Mostly Cloudy
3:16 PM 75.2 °F 57.2 °F 53% 29.99 in 10.0 mi WNW 6.9 mph - N/A   Overcast
3:36 PM 75.2 °F 55.4 °F 50% 29.99 in 10.0 mi NNW 9.2 mph - N/A   Mostly Cloudy
3:56 PM 73.4 °F 55.4 °F 53% 29.99 in 10.0 mi NNW 8.1 mph - N/A   Scattered Clouds
4:16 PM 73.4 °F 55.4 °F 53% 29.99 in 10.0 mi NNW 3.5 mph - N/A   Mostly Cloudy
4:36 PM 73.4 °F 55.4 °F 53% 29.99 in 10.0 mi NW 6.9 mph - N/A   Mostly Cloudy
4:56 PM 71.6 °F 55.4 °F 57% 30.00 in 10.0 mi NW 4.6 mph - N/A   Overcast
5:16 PM 71.6 °F 57.2 °F 60% 30.00 in 10.0 mi NW 4.6 mph - N/A   Overcast
5:36 PM 71.6 °F 57.2 °F 60% 30.00 in 10.0 mi Calm Calm - N/A   Overcast
5:56 PM 73.4 °F 57.2 °F 57% 30.00 in 10.0 mi West 3.5 mph - N/A   Overcast
6:16 PM 73.4 °F 57.2 °F 57% 29.99 in 10.0 mi NW 5.8 mph - N/A   Overcast
6:36 PM 73.4 °F 57.2 °F 57% 29.99 in 10.0 mi WNW 4.6 mph - N/A   Mostly Cloudy
6:56 PM 73.4 °F 57.2 °F 57% 29.99 in 10.0 mi NNW 9.2 mph - N/A   Scattered Clouds
7:16 PM 73.4 °F 57.2 °F 57% 29.99 in 10.0 mi NW 5.8 mph - N/A   Mostly Cloudy
7:36 PM 71.6 °F 57.2 °F 60% 29.99 in 10.0 mi NNW 5.8 mph - N/A   Mostly Cloudy
7:56 PM 69.8 °F 57.2 °F 64% 29.99 in 10.0 mi North 6.9 mph - N/A   Overcast
8:16 PM 68.0 °F 59.0 °F 73% 30.00 in 10.0 mi North 8.1 mph - N/A   Mostly Cloudy
8:36 PM 66.2 °F 60.8 °F 83% 30.01 in 10.0 mi North 6.9 mph - N/A   Scattered Clouds
8:56 PM 66.2 °F 62.6 °F 88% 30.02 in 10.0 mi NNE 5.8 mph - N/A   Scattered Clouds
9:16 PM 64.4 °F 60.8 °F 88% 30.02 in 10.0 mi NNE 9.2 mph - N/A   Scattered Clouds
9:36 PM 64.4 °F 60.8 °F 88% 30.03 in 10.0 mi NNE 5.8 mph - N/A   Clear
9:56 PM 62.6 °F 60.8 °F 94% 30.04 in 10.0 mi North 4.6 mph - N/A   Scattered Clouds
10:16 PM 62.6 °F 59.0 °F 88% 30.04 in 10.0 mi North 3.5 mph - N/A   Scattered Clouds
10:36 PM 62.6 °F 59.0 °F 88% 30.04 in 10.0 mi North 4.6 mph - N/A   Scattered Clouds
10:56 PM 60.8 °F 59.0 °F 94% 30.04 in 10.0 mi Calm Calm - N/A   Clear
11:16 PM 59.0 °F 57.2 °F 94% 30.05 in 10.0 mi Calm Calm - N/A   Clear
11:36 PM 57.2 °F 57.2 °F 100% 30.05 in 10.0 mi Calm Calm - N/A   Scattered Clouds
11:56 PM 57.2 °F 57.2 °F 100% 30.05 in 10.0 mi NW 3.5 mph - N/A   Clear